SCP
0 0 0 0 0 0 0 0 0 0 0 0 0 0 0 0 0 0 0 0 0 0 0 0 0 0 0 0 0 0 0 0 0 0 0 0 0 0 0 0 0 0 0
0 0 0 0 0 0 0 0 0 0 0 0 0 0 0 0 0 -0 0 0 -0 -0 0 0 0 0 0 0 0 0 0 0 0 0 0 0 0 0 0 0 0 0 0
0 0 0 0 0 0 0 0 0 0 0 0 0 0 0 -0 -0 -0 -0 -0 0 -0 -0 -0 0 0 0 0 0 0 0 0 0 0 0 0 0 0 0 0 0 0 0
0 0 0 0 0 0 0 0 0 0 0 0 0 0 0 0 -0 -0 -0 -0 -0 0 -0 -0 0 0 0 0 0 0 0 0 0 0 0 0 0 0 0 0 0 0 0
0 0 0 0 0 0 0 0 0 0 0 0 0 0 0 0 0 -0 -0 -0 -0 -0 0 0 0 -0 -0 0 0 0 0 0 0 0 0 0 0 0 0 0 0 0 0
0 0 0 0 0 0 0 0 0 0 0 0 0 0 0 0 0 0 0 0 -0 -0 -0 -0 0 -0 -0 -0 -0 -0 0 -0 0 0 0 0 0 0 0 0 0 0 0
0 0 0 0 0 0 0 0 0 0 0 0 0 0 0 0 0 0 0 0 0 0 0 -0 -0 -0 -0 -0 -0 -0 0 -0 -0 0 0 0 0 0 0 0 0 0 0
0 0 0 0 0 0 0 0 0 0 0 0 0 0 0 0 0 0 0 0 0 0 0 0 0 -0 -0 -0 -0 -0 -0 -0 0 0 0 0 0 0 0 0 0 0 0
0 0 0 0 0 0 0 0 0 0 0 0 0 0 0 0 -0 -0 -0 0 0 0 0 0 0 0 -0 -0 0 0 0 0 -0 -0 -0 -0 -0 -0 -0 0 0 0 0
0 0 0 0 0 0 0 0 0 0 0 0 0 0 -0 0 0 0 0 0 0 0 0 0 -0 -0 0 0 0 -0 -0 -0 -0 -0 -0 -0 -0 -0 -0 0 0 0 0
0 0 0 0 0 0 0 0 0 0 0 -0 0 0 0 0 -0 -0 -0 0 0 0 0 0 0 -0 -0 -0 -0 -0 -0 -0 -0 -0 -0 0 0 0 0 0 0 0 0
0 0 0 0 0 0 0 0 0 0 0 0 0 0 0 0 0 0 0 0 0 0 0 0 -0 -0 -0 -0 -0 -0 -0 -0 0 0 0 0 0 0 0 0 0 0 0
0 0 0 0 0 0 0 0 0 0 0 0 0 0 0 0 0 0 0 0 0 0 0 0 0 -0 -0 -0 -0 -0 -0 0 -0 -0 -0 -0 0 0 0 0 0 0 0
0 0 0 0 0 0 0 0 0 0 0 0 0 0 0 0 0 0 0 0 0 0 0 0 0 -0 -0 0 -0 -0 0 0 -0 -0 -0 -0 -0 -0 -0 0 0 0 0
0 0 0 0 0 0 0 0 0 0 0 0 0 0 0 0 0 0 0 0 0 0 0 0 0 0 0 0 0 0 0 0 -0 -0 -0 -0 -0 -0 -0 0 0 -0 0
0 0 0 0 0 0 0 0 0 0 0 0 0 0 0 0 0 0 0 0 0 0 0 0 0 0 0 0 0 0 0 0 0 0 -0 -0 -0 -0 0 0 -0 -0 -0
0 0 0 0 0 0 0 0 0 0 0 0 0 0 0 0 0 0 0 0 0 0 0 0 0 0 0 0 0 0 0 0 0 0 -0 -0 -0 -0 0 0 0 0 0
0 0 0 0 0 0 0 0 0 0 0 0 0 0 0 0 0 0 0 0 0 0 0 0 0 0 0 0 0 0 0 0 0 0 0 0 0 0 0 0 0 0 0
0 0 0 0 0 0 0 0 0 0 0 0 0 0 0 0 0 0 0 0 0 0 0 0 0 0 0 0 0 0 0 0 0 0 0 0 0 0 0 0 0 0 0
0 0 0 0 0 0 0 0 0 0 0 0 0 0 0 0 0 0 0 0 0 0 0 0 0 0 0 0 0 0 0 0 0 0 0 0 0 0 0 0 0 0 0
0 0 0 0 0 0 0 0 0 0 0 0 0 0 0 0 0 0 0 0 0 0 0 0 0 0 0 0 0 0 0 0 0 0 0 0 0 0 0 0 0 0 0
0 0 0 0 0 0 0 0 0 0 0 0 0 0 0 0 0 0 0 0 0 0 0 0 0 0 0 0 0 0 0 0 0 0 0 0 0 0 0 0 0 0 0
0 0 0 0 0 0 0 0 0 0 0 0 0 0 0 0 0 0 0 0 0 0 0 0 0 0 0 0 0 0 0 0 0 0 0 0 0 0 0 0 0 0 0
0 0 0 0 0 0 0 0 0 0 0 0 0 0 0 0 0 0 0 0 0 0 0 0 0 0 0 0 0 0 0 0 0 0 0 0 0 0 0 0 0 0 0
0 0 0 0 0 0 0 0 0 0 0 0 0 0 0 0 0 0 0 0 0 0 0 0 0 0 0 0 0 0 0 0 0 0 0 0 0 0 0 0 0 0 0
0 0 0 0 0 0 0 0 0 0 0 0 0 0 0 0 0 0 0 0 0 0 0 0 0 0 0 0 0 0 0 0 0 0 0 0 0 0 0 0 0 0 0
Wind_Speed_500mb
93 84 85 87 80 75 69 60 52 46 48 46 44 51 58 47 51 58 59 52 51 56 56 54 52 50 48 46 47 47 50 52 62 65 56 50 54 53 50 55 64 63 70
92 88 89 84 75 72 67 61 52 43 36 40 35 37 40 46 48 52 47 43 45 51 48 51 53 54 48 47 47 44 43 50 51 53 46 41 40 38 22 24 34 40 40
92 93 85 77 77 81 84 80 68 37 21 29 30 30 31 32 38 44 40 40 41 42 46 50 47 50 48 46 45 48 51 51 47 46 44 40 26 13 14 42 70 82 79
98 87 84 79 71 76 82 79 67 28 8 15 23 26 26 25 26 28 34 37 36 37 41 46 44 47 48 49 48 47 46 51 54 49 46 36 23 33 36 67 74 90 91
92 89 83 76 71 68 74 82 75 52 23 6 12 20 21 21 21 22 22 22 27 31 34 43 47 51 45 44 48 55 54 52 49 48 42 35 41 47 46 59 69 88 82
96 91 85 81 75 73 71 74 78 77 47 14 6 12 20 23 19 18 19 21 19 23 33 39 42 41 44 47 50 51 49 49 49 48 49 54 65 71 64 73 75 72 90
95 90 85 83 81 79 77 81 89 93 67 34 25 15 5 11 17 18 20 30 18 22 26 26 29 30 31 31 25 35 52 61 48 48 61 67 73 73 79 77 58 57 81
93 94 88 86 82 80 84 88 93 95 96 72 41 33 29 10 4 6 16 21 22 19 17 18 21 15 11 22 21 28 25 31 28 34 48 64 72 67 61 57 59 63 64
87 89 88 87 84 80 85 92 95 97 98 97 78 59 57 45 17 2 7 12 17 13 7 6 4 6 18 25 19 31 27 34 20 38 53 59 59 50 45 57 67 68 56
80 77 75 76 80 83 82 81 84 91 96 97 99 94 72 62 31 30 28 47 54 50 33 6 11 34 43 38 48 71 83 73 78 79 75 68 60 55 49 44 44 50 51
65 67 71 68 74 72 72 74 80 78 82 89 98 103 101 93 74 62 60 71 77 75 73 71 65 65 71 73 76 84 88 79 74 72 67 62 58 61 54 37 26 27 30
56 58 67 73 69 72 66 66 71 65 76 83 83 87 91 93 87 87 87 88 89 97 92 84 79 78 79 79 74 68 65 68 72 70 66 58 53 47 39 38 39 41 45
53 52 56 66 78 74 75 73 69 69 65 69 75 73 73 83 79 75 77 76 81 88 82 76 76 75 75 73 65 61 64 67 66 68 65 61 55 50 49 48 47 47 48
53 50 47 51 61 80 80 79 81 75 73 70 70 71 71 65 63 60 64 69 70 78 77 76 76 74 72 71 77 74 72 67 64 61 58 53 48 46 44 39 41 40 43
49 52 47 46 46 49 77 76 74 75 72 71 75 74 72 73 69 67 72 71 68 66 73 74 73 72 74 72 68 64 59 57 57 55 54 51 48 46 44 39 37 36 39
54 52 52 50 48 48 48 62 74 72 71 71 68 70 67 63 62 65 67 67 64 69 79 75 71 68 66 61 60 59 57 54 52 51 50 48 47 46 44 40 38 38 38
51 47 47 47 51 50 54 61 65 67 68 69 67 64 62 61 61 61 62 66 69 69 79 72 68 65 62 60 58 57 55 52 51 52 50 48 46 43 43 43 43 43 42
46 45 46 45 47 49 50 54 60 64 69 69 66 62 58 57 59 62 64 64 74 75 73 68 65 62 60 57 53 52 51 53 53 52 52 49 46 44 44 44 40 38 35
46 43 41 42 45 46 46 49 52 55 56 55 55 58 56 57 62 66 62 72 71 71 69 68 63 61 60 58 57 55 55 54 54 55 54 52 50 49 47 43 38 32 32
38 36 37 38 41 44 45 47 49 50 50 48 52 53 53 58 66 66 65 66 66 66 64 63 61 60 60 58 56 54 55 56 53 54 53 52 50 46 43 39 38 37 36
33 32 33 36 38 42 42 46 48 49 51 50 51 52 54 60 62 60 61 62 62 61 61 61 61 60 60 59 56 55 55 55 53 54 55 54 49 45 42 41 39 39 39
28 28 29 33 34 37 38 41 44 45 45 45 46 51 53 56 57 56 56 57 58 58 59 60 62 61 60 59 58 56 55 54 52 52 53 51 49 45 42 41 40 41 39
23 22 23 27 31 32 32 36 39 40 40 41 43 48 50 52 52 51 52 53 55 56 58 59 60 60 60 58 57 59 57 57 54 51 52 51 48 45 42 42 41 41 42
17 17 19 22 26 29 31 30 33 36 37 38 41 44 45 47 46 47 47 49 51 53 56 58 59 58 59 60 58 55 55 56 53 52 50 50 48 45 43 44 44 43 42
12 12 13 16 22 24 26 24 26 31 33 35 38 38 39 40 41 43 44 45 48 50 53 56 57 57 58 60 60 58 55 51 51 50 48 46 45 42 40 41 41 39 37
9 8 9 11 16 20 22 22 21 24 27 30 32 33 33 35 36 38 40 41 43 46 48 52 54 54 56 57 58 58 56 55 52 48 46 45 45 44 42 42 41 42 43
Wind_Direction_500mb
354 352 352 350 346 340 333 323 311 289 271 267 259 251 247 247 242 240 244 243 242 241 241 241 240 240 240 243 245 247 256 261 266 276 279 284 291 302 298 271 263 239 230
359 358 355 351 349 349 348 341 320 296 275 262 259 244 243 237 241 241 240 236 240 240 235 237 242 239 237 241 245 250 254 262 266 280 284 282 300 307 285 274 194 210 200
2 358 358 1 7 5 2 358 345 312 275 252 248 240 242 248 237 237 235 233 236 234 238 237 240 236 236 239 242 249 256 256 259 266 268 271 275 242 180 146 114 131 146
4 3 5 9 14 21 17 22 21 42 6 249 238 238 241 249 244 252 231 235 231 235 235 236 237 236 236 240 244 250 257 259 262 256 253 251 239 174 167 138 127 122 123
7 9 10 15 20 25 32 30 35 29 24 349 226 230 228 240 239 252 245 245 239 230 237 230 237 234 240 243 247 252 258 256 256 254 246 228 202 170 172 139 121 136 131
11 13 14 21 25 30 35 40 42 36 30 27 81 195 200 223 239 236 233 233 233 236 234 237 243 246 247 250 251 252 258 243 249 241 238 206 178 172 153 136 122 118 116
16 19 19 23 28 35 38 44 46 43 44 63 68 81 122 230 230 233 245 250 241 230 227 235 235 236 243 254 253 245 250 249 241 255 233 192 170 163 151 144 131 115 113
22 22 24 25 30 37 44 47 50 50 50 59 57 52 39 52 78 225 228 241 260 265 254 257 246 242 250 241 263 276 218 185 215 231 209 179 163 148 136 123 126 119 121
17 17 18 25 29 39 45 49 49 56 59 59 58 52 68 69 59 105 212 251 267 281 327 228 155 313 278 253 213 169 116 88 109 138 144 140 140 141 140 134 129 126 115
10 12 20 21 25 32 39 51 55 58 60 64 64 57 52 53 67 108 120 106 95 89 94 147 92 120 111 146 128 116 109 109 110 111 110 110 114 120 117 114 121 119 114
5 9 24 28 28 33 37 35 45 56 62 61 68 66 61 56 62 77 90 92 90 91 84 84 90 98 107 113 114 113 112 115 110 107 105 104 100 96 88 75 72 82 120
8 13 22 31 37 38 40 46 44 38 45 57 62 66 69 64 60 66 74 81 84 84 83 85 89 93 95 97 95 97 99 98 93 89 87 84 85 86 91 106 107 102 95
12 21 22 30 43 45 42 46 44 41 44 44 52 52 48 53 61 64 67 71 78 81 80 83 84 82 82 80 80 85 89 86 86 87 87 85 81 81 87 93 102 106 102
17 25 24 26 29 45 49 47 52 52 46 53 50 52 59 62 59 59 62 66 72 76 77 76 76 76 75 77 75 74 75 82 87 87 87 88 90 90 87 88 89 91 97
20 24 31 33 34 33 42 48 50 51 56 57 60 62 60 59 60 68 72 69 73 77 83 78 73 71 71 72 73 74 76 77 77 79 82 86 87 85 80 76 81 84 81
24 31 33 39 41 45 46 46 55 60 60 60 65 66 67 68 70 76 78 76 75 83 78 68 67 68 69 72 73 74 75 77 80 83 85 86 85 84 84 83 84 82 79
21 33 36 45 49 48 57 63 59 60 63 66 67 68 70 74 76 77 80 82 82 83 73 67 64 63 63 64 66 67 70 73 75 75 76 78 80 81 79 78 78 79 75
28 36 41 49 57 57 59 64 70 68 64 61 62 67 72 76 78 79 79 81 76 71 70 66 64 64 66 70 69 67 67 72 73 75 73 72 76 80 80 80 79 77 76
29 37 45 53 61 64 64 68 72 74 75 75 72 68 69 74 75 74 76 73 71 69 69 68 68 68 68 68 67 66 66 64 69 70 70 73 76 73 71 77 83 84 87
34 38 50 57 65 68 68 71 72 72 72 70 71 70 71 76 73 72 72 71 70 69 68 69 69 70 69 67 68 70 72 72 72 73 74 74 76 82 86 84 80 76 69
34 42 54 61 67 72 72 74 75 75 73 72 74 75 73 76 75 74 72 70 70 69 69 69 68 68 70 70 69 70 72 74 74 76 75 78 80 81 82 82 81 78 72
38 47 57 65 69 74 75 80 81 80 80 79 79 77 78 79 78 77 75 73 72 71 70 69 69 68 66 67 70 72 74 75 77 78 80 83 83 82 82 81 80 77 74
41 51 62 71 74 76 79 85 86 84 84 84 83 82 82 81 81 79 77 76 74 72 71 69 68 68 69 69 69 72 75 77 78 81 84 87 87 85 82 77 75 76 78
39 55 67 74 81 84 83 84 86 89 90 89 87 86 85 84 83 82 79 78 77 75 73 70 68 68 68 68 69 70 72 78 80 83 87 89 89 87 84 81 79 77 76
30 61 76 86 92 89 88 86 91 93 94 93 91 90 89 89 89 86 83 81 78 77 76 75 73 70 69 69 69 69 70 73 79 82 85 86 87 86 82 79 77 75 72
27 65 91 99 102 101 98 95 93 96 98 98 97 95 92 91 90 89 87 85 82 79 77 77 77 76 73 69 69 70 71 71 73 78 81 82 81 81 79 77 74 73 73
Wind_Speed_850mb
93 84 85 87 80 75 69 60 52 46 48 46 44 51 58 47 51 58 59 52 51 56 56 54 52 50 48 46 47 47 50 52 62 65 56 50 54 53 50 55 64 63 70
92 88 89 84 75 72 67 61 52 43 36 40 35 37 40 46 48 52 47 43 45 51 48 51 53 54 48 47 47 44 43 50 51 53 46 41 40 38 22 24 34 40 40
92 93 85 77 77 81 84 80 68 37 21 29 30 30 31 32 38 44 40 40 41 42 46 50 47 50 48 46 45 48 51 51 47 46 44 40 26 13 14 42 70 82 79
98 87 84 79 71 76 82 79 67 28 8 15 23 26 26 25 26 28 34 37 36 37 41 46 44 47 48 49 48 47 46 51 54 49 46 36 23 33 36 67 74 90 91
92 89 83 76 71 68 74 82 75 52 23 6 12 20 21 21 21 22 22 22 27 31 34 43 47 51 45 44 48 55 54 52 49 48 42 35 41 47 46 59 69 88 82
96 91 85 81 75 73 71 74 78 77 47 14 6 12 20 23 19 18 19 21 19 23 33 39 42 41 44 47 50 51 49 49 49 48 49 54 65 71 64 73 75 72 90
95 90 85 83 81 79 77 81 89 93 67 34 25 15 5 11 17 18 20 30 18 22 26 26 29 30 31 31 25 35 52 61 48 48 61 67 73 73 79 77 58 57 81
93 94 88 86 82 80 84 88 93 95 96 72 41 33 29 10 4 6 16 21 22 19 17 18 21 15 11 22 21 28 25 31 28 34 48 64 72 67 61 57 59 63 64
87 89 88 87 84 80 85 92 95 97 98 97 78 59 57 45 17 2 7 12 17 13 7 6 4 6 18 25 19 31 27 34 20 38 53 59 59 50 45 57 67 68 56
80 77 75 76 80 83 82 81 84 91 96 97 99 94 72 62 31 30 28 47 54 50 33 6 11 34 43 38 48 71 83 73 78 79 75 68 60 55 49 44 44 50 51
65 67 71 68 74 72 72 74 80 78 82 89 98 103 101 93 74 62 60 71 77 75 73 71 65 65 71 73 76 84 88 79 74 72 67 62 58 61 54 37 26 27 30
56 58 67 73 69 72 66 66 71 65 76 83 83 87 91 93 87 87 87 88 89 97 92 84 79 78 79 79 74 68 65 68 72 70 66 58 53 47 39 38 39 41 45
53 52 56 66 78 74 75 73 69 69 65 69 75 73 73 83 79 75 77 76 81 88 82 76 76 75 75 73 65 61 64 67 66 68 65 61 55 50 49 48 47 47 48
53 50 47 51 61 80 80 79 81 75 73 70 70 71 71 65 63 60 64 69 70 78 77 76 76 74 72 71 77 74 72 67 64 61 58 53 48 46 44 39 41 40 43
49 52 47 46 46 49 77 76 74 75 72 71 75 74 72 73 69 67 72 71 68 66 73 74 73 72 74 72 68 64 59 57 57 55 54 51 48 46 44 39 37 36 39
54 52 52 50 48 48 48 62 74 72 71 71 68 70 67 63 62 65 67 67 64 69 79 75 71 68 66 61 60 59 57 54 52 51 50 48 47 46 44 40 38 38 38
51 47 47 47 51 50 54 61 65 67 68 69 67 64 62 61 61 61 62 66 69 69 79 72 68 65 62 60 58 57 55 52 51 52 50 48 46 43 43 43 43 43 42
46 45 46 45 47 49 50 54 60 64 69 69 66 62 58 57 59 62 64 64 74 75 73 68 65 62 60 57 53 52 51 53 53 52 52 49 46 44 44 44 40 38 35
46 43 41 42 45 46 46 49 52 55 56 55 55 58 56 57 62 66 62 72 71 71 69 68 63 61 60 58 57 55 55 54 54 55 54 52 50 49 47 43 38 32 32
38 36 37 38 41 44 45 47 49 50 50 48 52 53 53 58 66 66 65 66 66 66 64 63 61 60 60 58 56 54 55 56 53 54 53 52 50 46 43 39 38 37 36
33 32 33 36 38 42 42 46 48 49 51 50 51 52 54 60 62 60 61 62 62 61 61 61 61 60 60 59 56 55 55 55 53 54 55 54 49 45 42 41 39 39 39
28 28 29 33 34 37 38 41 44 45 45 45 46 51 53 56 57 56 56 57 58 58 59 60 62 61 60 59 58 56 55 54 52 52 53 51 49 45 42 41 40 41 39
23 22 23 27 31 32 32 36 39 40 40 41 43 48 50 52 52 51 52 53 55 56 58 59 60 60 60 58 57 59 57 57 54 51 52 51 48 45 42 42 41 41 42
17 17 19 22 26 29 31 30 33 36 37 38 41 44 45 47 46 47 47 49 51 53 56 58 59 58 59 60 58 55 55 56 53 52 50 50 48 45 43 44 44 43 42
12 12 13 16 22 24 26 24 26 31 33 35 38 38 39 40 41 43 44 45 48 50 53 56 57 57 58 60 60 58 55 51 51 50 48 46 45 42 40 41 41 39 37
9 8 9 11 16 20 22 22 21 24 27 30 32 33 33 35 36 38 40 41 43 46 48 52 54 54 56 57 58 58 56 55 52 48 46 45 45 44 42 42 41 42 43
Wind_Direction_850mb
354 352 352 350 346 340 333 323 311 289 271 267 259 251 247 247 242 240 244 243 242 241 241 241 240 240 240 243 245 247 256 261 266 276 279 284 291 302 298 271 263 239 230
359 358 355 351 349 349 348 341 320 296 275 262 259 244 243 237 241 241 240 236 240 240 235 237 242 239 237 241 245 250 254 262 266 280 284 282 300 307 285 274 194 210 200
2 358 358 1 7 5 2 358 345 312 275 252 248 240 242 248 237 237 235 233 236 234 238 237 240 236 236 239 242 249 256 256 259 266 268 271 275 242 180 146 114 131 146
4 3 5 9 14 21 17 22 21 42 6 249 238 238 241 249 244 252 231 235 231 235 235 236 237 236 236 240 244 250 257 259 262 256 253 251 239 174 167 138 127 122 123
7 9 10 15 20 25 32 30 35 29 24 349 226 230 228 240 239 252 245 245 239 230 237 230 237 234 240 243 247 252 258 256 256 254 246 228 202 170 172 139 121 136 131
11 13 14 21 25 30 35 40 42 36 30 27 81 195 200 223 239 236 233 233 233 236 234 237 243 246 247 250 251 252 258 243 249 241 238 206 178 172 153 136 122 118 116
16 19 19 23 28 35 38 44 46 43 44 63 68 81 122 230 230 233 245 250 241 230 227 235 235 236 243 254 253 245 250 249 241 255 233 192 170 163 151 144 131 115 113
22 22 24 25 30 37 44 47 50 50 50 59 57 52 39 52 78 225 228 241 260 265 254 257 246 242 250 241 263 276 218 185 215 231 209 179 163 148 136 123 126 119 121
17 17 18 25 29 39 45 49 49 56 59 59 58 52 68 69 59 105 212 251 267 281 327 228 155 313 278 253 213 169 116 88 109 138 144 140 140 141 140 134 129 126 115
10 12 20 21 25 32 39 51 55 58 60 64 64 57 52 53 67 108 120 106 95 89 94 147 92 120 111 146 128 116 109 109 110 111 110 110 114 120 117 114 121 119 114
5 9 24 28 28 33 37 35 45 56 62 61 68 66 61 56 62 77 90 92 90 91 84 84 90 98 107 113 114 113 112 115 110 107 105 104 100 96 88 75 72 82 120
8 13 22 31 37 38 40 46 44 38 45 57 62 66 69 64 60 66 74 81 84 84 83 85 89 93 95 97 95 97 99 98 93 89 87 84 85 86 91 106 107 102 95
12 21 22 30 43 45 42 46 44 41 44 44 52 52 48 53 61 64 67 71 78 81 80 83 84 82 82 80 80 85 89 86 86 87 87 85 81 81 87 93 102 106 102
17 25 24 26 29 45 49 47 52 52 46 53 50 52 59 62 59 59 62 66 72 76 77 76 76 76 75 77 75 74 75 82 87 87 87 88 90 90 87 88 89 91 97
20 24 31 33 34 33 42 48 50 51 56 57 60 62 60 59 60 68 72 69 73 77 83 78 73 71 71 72 73 74 76 77 77 79 82 86 87 85 80 76 81 84 81
24 31 33 39 41 45 46 46 55 60 60 60 65 66 67 68 70 76 78 76 75 83 78 68 67 68 69 72 73 74 75 77 80 83 85 86 85 84 84 83 84 82 79
21 33 36 45 49 48 57 63 59 60 63 66 67 68 70 74 76 77 80 82 82 83 73 67 64 63 63 64 66 67 70 73 75 75 76 78 80 81 79 78 78 79 75
28 36 41 49 57 57 59 64 70 68 64 61 62 67 72 76 78 79 79 81 76 71 70 66 64 64 66 70 69 67 67 72 73 75 73 72 76 80 80 80 79 77 76
29 37 45 53 61 64 64 68 72 74 75 75 72 68 69 74 75 74 76 73 71 69 69 68 68 68 68 68 67 66 66 64 69 70 70 73 76 73 71 77 83 84 87
34 38 50 57 65 68 68 71 72 72 72 70 71 70 71 76 73 72 72 71 70 69 68 69 69 70 69 67 68 70 72 72 72 73 74 74 76 82 86 84 80 76 69
34 42 54 61 67 72 72 74 75 75 73 72 74 75 73 76 75 74 72 70 70 69 69 69 68 68 70 70 69 70 72 74 74 76 75 78 80 81 82 82 81 78 72
38 47 57 65 69 74 75 80 81 80 80 79 79 77 78 79 78 77 75 73 72 71 70 69 69 68 66 67 70 72 74 75 77 78 80 83 83 82 82 81 80 77 74
41 51 62 71 74 76 79 85 86 84 84 84 83 82 82 81 81 79 77 76 74 72 71 69 68 68 69 69 69 72 75 77 78 81 84 87 87 85 82 77 75 76 78
39 55 67 74 81 84 83 84 86 89 90 89 87 86 85 84 83 82 79 78 77 75 73 70 68 68 68 68 69 70 72 78 80 83 87 89 89 87 84 81 79 77 76
30 61 76 86 92 89 88 86 91 93 94 93 91 90 89 89 89 86 83 81 78 77 76 75 73 70 69 69 69 69 70 73 79 82 85 86 87 86 82 79 77 75 72
27 65 91 99 102 101 98 95 93 96 98 98 97 95 92 91 90 89 87 85 82 79 77 77 77 76 73 69 69 70 71 71 73 78 81 82 81 81 79 77 74 73 73